Flag for USA Past Weather in Warminster Township, Pennsylvania, USA — Yesterday and Last 2 Weeks

Now
65 °F

Clear.


Feels Like: 65 °F
Forecast: 65 / 86 °F
Wind: 3 mph from Northeast

Location: Doylestown Airport

Current Time: Aug 28, 2016 at 6:50:07 AM

Latest Report: Aug 28, 2016 at 5:54 AM


Visibility: 10 mi

Pressure: 30.24 "Hg

Humidity: 94%

Dew Point: 63 °F

Location of Warminster TownshipLocation

Past Weather in Warminster Township — Graph

°F

Warminster Township Temperature Yesterday

Maximum temperature yesterday: 89 °F (at 2:54 PM)
Minimum temperature yesterday: 67 °F (at 6:54 AM)
Average temperature yesterday: 77 °F

High & Low Weather Summary for the Past Weeks

 TemperatureHumidityPressure
High98 °F (Aug 13, 2:54 PM)97% (Aug 13, 5:54 AM)30.33 "Hg (Aug 13, 5:54 AM)
Low55 °F (Aug 23, 4:54 AM)35% (Aug 23, 5:54 PM)29.75 "Hg (Aug 21, 4:54 PM)
Average79 °F72%30.03 "Hg
* Reported Aug 13 5:54 AM — Aug 28 5:54 AM, Warminster Township, Weather by CustomWeather, © 2016

Note: Actual official high and low records may vary slightly from our data, if they occured in-between our weather recording intervals... More about our weather records

Advertising

Warminster Township Weather History for the Previous 24 Hours

Scroll right to see more
 ConditionsComfort  
Time TempWeatherWind HumidityBarometerVisibility
5:54 AM
Sun, Aug 28
65 °FClear.3 mph94%30.24 "Hg10 mi
4:54 AM65 °FClear.No wind94%30.22 "Hg10 mi
3:54 AM65 °FClear.No wind94%30.19 "Hg10 mi
2:54 AM65 °FClear.No wind97%30.19 "Hg10 mi
1:54 AM67 °FClear.No wind90%30.20 "Hg10 mi
12:54 AM68 °FClear.No wind87%30.21 "Hg10 mi
11:54 PM
Sat, Aug 27
69 °FClear.No wind81%30.22 "Hg10 mi
10:54 PM71 °FClear.No wind76%30.22 "Hg10 mi
9:54 PM71 °FClear.No wind81%30.21 "Hg10 mi
8:54 PM76 °FClear.No wind64%30.19 "Hg10 mi
7:54 PM78 °FSunny.No wind62%30.17 "Hg10 mi
6:54 PM83 °FSunny.No wind51%30.15 "Hg10 mi
5:54 PM87 °FSunny.No wind45%30.15 "Hg10 mi
3:54 PM89 °FSunny.7 mph41%30.14 "Hg10 mi
2:54 PM89 °FSunny.3 mph43%30.15 "Hg10 mi
1:54 PM87 °FSunny.5 mph48%30.16 "Hg10 mi
12:54 PM86 °FSunny.6 mph51%30.17 "Hg10 mi
11:54 AM84 °FSunny.5 mph51%30.18 "Hg10 mi
10:54 AM85 °FSunny.7 mph51%30.18 "Hg10 mi
9:54 AM80 °FSunny.5 mph60%30.18 "Hg10 mi
8:54 AM78 °FSunny.7 mph69%30.17 "Hg10 mi
7:54 AM72 °FSunny.No wind78%30.17 "Hg10 mi
6:54 AM67 °FClear.No wind90%30.15 "Hg10 mi
Weather by CustomWeather, © 2016

See weather overviewHow to use our weather pages